| time (UTC) | temp C | wind direction | speed KPH | gust KPH | rain 1hr cm | rain 24hr cm | rain mn cm | humidity % | barometer mb |
| 20260507212519 | 15 | 135 | 3.2 | 8.0 | 0.00 | 0.30 | 0.23 | 66 | 1005.7 |
| 20260507211519 | 15 | 180 | 1.6 | 8.0 | 0.00 | 0.33 | 0.23 | 66 | 1005.7 |
| 20260507210521 | 14 | 180 | 1.6 | 4.8 | 0.00 | 0.36 | 0.23 | 68 | 1005.8 |
| 20260507205521 | 14 | 158 | 1.6 | 8.0 | 0.00 | 0.36 | 0.23 | 71 | 1005.8 |
| 20260507204521 | 14 | 135 | 4.8 | 11.3 | 0.00 | 0.36 | 0.23 | 71 | 1005.7 |
| 20260507203519 | 13 | 135 | 6.4 | 14.5 | 0.00 | 0.36 | 0.23 | 71 | 1005.7 |
| 20260507202521 | 14 | 135 | 3.2 | 11.3 | 0.00 | 0.36 | 0.23 | 70 | 1005.7 |
| 20260507201521 | 14 | 180 | 4.8 | 11.3 | 0.00 | 0.36 | 0.23 | 69 | 1005.6 |
| 20260507200519 | 14 | 135 | 3.2 | 6.4 | 0.00 | 0.36 | 0.23 | 71 | 1005.7 |
| 20260507195519 | 14 | 180 | 3.2 | 12.9 | 0.00 | 0.36 | 0.23 | 72 | 1005.8 |
| 20260507194601 | 13 | 135 | 6.4 | 14.5 | 0.00 | 0.36 | 0.23 | 74 | 1005.9 |
| 20260507193519 | 13 | 180 | 9.7 | 17.7 | 0.00 | 0.36 | 0.23 | 74 | 1005.8 |
| 20260507192521 | 13 | 180 | 6.4 | 19.3 | 0.00 | 0.36 | 0.23 | 72 | 1005.9 |
| 20260507191521 | 14 | 180 | 6.4 | 17.7 | 0.00 | 0.36 | 0.23 | 70 | 1005.9 |
| 20260507190523 | 15 | 180 | 4.8 | 20.9 | 0.00 | 0.36 | 0.23 | 67 | 1006.0 |
| 20260507185625 | 15 | 180 | 6.4 | 12.9 | 0.00 | 0.36 | 0.23 | 68 | 1006.1 |
| 20260507185021 | 15 | 180 | 6.4 | 16.1 | 0.00 | 0.36 | 0.23 | 66 | 1006.1 |
| 20260507184021 | 15 | 180 | 8.0 | 16.1 | 0.00 | 0.36 | 0.23 | 64 | 1006.1 |
| 20260507183021 | 15 | 180 | 8.0 | 17.7 | 0.00 | 0.36 | 0.23 | 66 | 1006.3 |
| 20260507182021 | 15 | 158 | 8.0 | 17.7 | 0.00 | 0.36 | 0.23 | 63 | 1006.5 |
| 20260507181024 | 15 | 158 | 8.0 | 14.5 | 0.00 | 0.36 | 0.23 | 61 | 1006.7 |
| 20260507180019 | 15 | 180 | 6.4 | 14.5 | 0.00 | 0.36 | 0.23 | 62 | 1006.6 |
| 20260507175020 | 14 | 180 | 4.8 | 17.7 | 0.00 | 0.36 | 0.23 | 64 | 1006.7 |
| 20260507174101 | 13 | 180 | 4.8 | 16.1 | 0.00 | 0.36 | 0.23 | 65 | 1006.6 |
| 20260507173543 | 13 | 203 | 1.6 | 9.7 | 0.00 | 0.36 | 0.23 | 66 | 1006.8 |
| 20260507172521 | 13 | 203 | 3.2 | 12.9 | 0.00 | 0.36 | 0.23 | 63 | 1006.9 |
| 20260507171521 | 13 | 203 | 6.4 | 16.1 | 0.00 | 0.36 | 0.23 | 61 | 1006.9 |
| 20260507170519 | 14 | 180 | 6.4 | 16.1 | 0.00 | 0.36 | 0.23 | 60 | 1006.8 |
| 20260507165522 | 14 | 203 | 4.8 | 14.5 | 0.00 | 0.36 | 0.23 | 62 | 1007.0 |
| 20260507164518 | 14 | 203 | 6.4 | 14.5 | 0.00 | 0.36 | 0.23 | 63 | 1007.1 |
| 20260507163523 | 15 | 203 | 4.8 | 12.9 | 0.00 | 0.36 | 0.23 | 63 | 1007.3 |
| 20260507162518 | 13 | 203 | 3.2 | 12.9 | 0.00 | 0.36 | 0.23 | 62 | 1007.4 |
| 20260507161521 | 13 | 180 | 4.8 | 11.3 | 0.00 | 0.36 | 0.23 | 65 | 1007.5 |
| 20260507160518 | 12 | 203 | 3.2 | 8.0 | 0.00 | 0.36 | 0.23 | 67 | 1007.6 |
| 20260507155519 | 13 | 180 | 4.8 | 16.1 | 0.00 | 0.36 | 0.23 | 67 | 1007.7 |
| 20260507154518 | 13 | 180 | 8.0 | 16.1 | 0.00 | 0.36 | 0.23 | 67 | 1007.7 |
| 20260507153518 | 13 | 180 | 3.2 | 14.5 | 0.00 | 0.36 | 0.23 | 66 | 1007.9 |
| 20260507152605 | 13 | 90 | 3.2 | 16.1 | 0.00 | 0.36 | 0.23 | 64 | 1007.9 |
| 20260507151518 | 13 | 90 | 11.3 | 16.1 | 0.00 | 0.36 | 0.23 | 62 | 1007.9 |
| 20260507150518 | 13 | 90 | 9.7 | 17.7 | 0.00 | 0.36 | 0.23 | 60 | 1008.0 |
| 20260507145518 | 13 | 90 | 3.2 | 12.9 | 0.00 | 0.36 | 0.23 | 63 | 1008.1 |
| 20260507144520 | 13 | 23 | 1.6 | 4.8 | 0.00 | 0.36 | 0.23 | 65 | 1008.1 |
| 20260507143520 | 12 | 23 | 4.8 | 12.9 | 0.00 | 0.36 | 0.23 | 64 | 1008.2 |
| 20260507142518 | 12 | 45 | 1.6 | 9.7 | 0.00 | 0.36 | 0.23 | 67 | 1008.1 |
| 20260507141540 | 12 | 45 | 4.8 | 14.5 | 0.00 | 0.36 | 0.23 | 68 | 1008.1 |
| 20260507140604 | 12 | 23 | 4.8 | 12.9 | 0.00 | 0.36 | 0.23 | 69 | 1008.2 |
| 20260507135520 | 12 | 293 | 3.2 | 16.1 | 0.00 | 0.36 | 0.23 | 72 | 1008.2 |
| 20260507134518 | 11 | 338 | 4.8 | 14.5 | 0.00 | 0.36 | 0.23 | 74 | 1008.2 |
| 20260507133518 | 11 | 338 | 4.8 | 14.5 | 0.00 | 0.36 | 0.23 | 73 | 1008.2 |
| 20260507132520 | 11 | 0 | 4.8 | 16.1 | 0.00 | 0.36 | 0.23 | 75 | 1008.4 |
| 20260507131518 | 11 | 315 | 6.4 | 14.5 | 0.00 | 0.36 | 0.23 | 77 | 1008.6 |
| 20260507130518 | 10 | 293 | 1.6 | 8.0 | 0.00 | 0.36 | 0.23 | 81 | 1008.7 |
| 20260507125518 | 10 | 315 | 6.4 | 14.5 | 0.00 | 0.36 | 0.23 | 82 | 1008.9 |
| 20260507124540 | 9 | 315 | 1.6 | 8.0 | 0.00 | 0.36 | 0.23 | 84 | 1008.6 |
| 20260507123518 | 9 | 315 | 3.2 | 14.5 | 0.00 | 0.36 | 0.23 | 84 | 1008.6 |
| 20260507122518 | 9 | 315 | 6.4 | 17.7 | 0.00 | 0.36 | 0.23 | 84 | 1008.5 |
| 20260507121601 | 8 | 315 | 4.8 | 14.5 | 0.00 | 0.36 | 0.23 | 85 | 1008.5 |
| 20260507120518 | 8 | 315 | 1.6 | 8.0 | 0.00 | 0.36 | 0.23 | 86 | 1008.5 |
| 20260507115518 | 8 | 315 | 4.8 | 14.5 | 0.00 | 0.36 | 0.23 | 87 | 1008.4 |
| 20260507114538 | 8 | 315 | 4.8 | 16.1 | 0.03 | 0.36 | 0.23 | 87 | 1008.4 |
| 20260507113518 | 8 | 315 | 4.8 | 12.9 | 0.03 | 0.36 | 0.23 | 87 | 1008.3 |
| 20260507112518 | 8 | 315 | 1.6 | 8.0 | 0.03 | 0.36 | 0.23 | 87 | 1007.9 |
| 20260507111518 | 8 | 315 | 3.2 | 8.0 | 0.03 | 0.36 | 0.23 | 88 | 1008.2 |
| 20260507110520 | 8 | 315 | 1.6 | 6.4 | 0.05 | 0.36 | 0.23 | 88 | 1008.2 |
| 20260507105518 | 8 | 0.0 | 3.2 | 0.08 | 0.36 | 0.23 | 87 | 1008.5 | |
| 20260507104542 | 8 | 0.0 | 6.4 | 0.05 | 0.33 | 0.20 | 87 | 1008.0 | |
| 20260507103522 | 8 | 315 | 1.6 | 11.3 | 0.10 | 0.33 | 0.20 | 87 | 1008.1 |
| 20260507102557 | 8 | 315 | 3.2 | 14.5 | 0.13 | 0.33 | 0.20 | 87 | 1008.2 |
| 20260507102020 | 8 | 315 | 1.6 | 9.7 | 0.15 | 0.33 | 0.20 | 87 | 1008.0 |
| 20260507101018 | 8 | 315 | 3.2 | 11.3 | 0.13 | 0.30 | 0.18 | 87 | 1008.0 |
| 20260507100018 | 8 | 315 | 4.8 | 14.5 | 0.10 | 0.28 | 0.15 | 86 | 1007.8 |
| 20260507095018 | 8 | 315 | 4.8 | 12.9 | 0.10 | 0.28 | 0.15 | 86 | 1007.8 |
| 20260507094018 | 8 | 315 | 4.8 | 14.5 | 0.10 | 0.25 | 0.13 | 85 | 1007.7 |
| 20260507093018 | 8 | 315 | 8.0 | 20.9 | 0.05 | 0.20 | 0.08 | 85 | 1007.6 |
| 20260507092018 | 9 | 315 | 11.3 | 19.3 | 0.03 | 0.18 | 0.05 | 85 | 1007.9 |
| 20260507091040 | 9 | 315 | 8.0 | 19.3 | 0.03 | 0.18 | 0.05 | 85 | 1007.5 |
| 20260507090018 | 9 | 293 | 6.4 | 16.1 | 0.05 | 0.18 | 0.05 | 86 | 1007.5 |
| 20260507085040 | 10 | 315 | 4.8 | 20.9 | 0.05 | 0.18 | 0.05 | 86 | 1007.1 |
| 20260507084018 | 10 | 315 | 6.4 | 22.5 | 0.03 | 0.15 | 0.03 | 85 | 1007.0 |
| 20260507083018 | 10 | 315 | 11.3 | 24.1 | 0.03 | 0.15 | 0.03 | 84 | 1007.0 |
| 20260507082116 | 10 | 315 | 12.9 | 29.0 | 0.03 | 0.15 | 0.03 | 84 | 1007.1 |
| 20260507081020 | 10 | 315 | 11.3 | 24.1 | 0.03 | 0.15 | 0.03 | 84 | 1007.0 |
| 20260507080030 | 10 | 315 | 14.5 | 30.6 | 0.00 | 0.13 | 0.00 | 83 | 1006.8 |
| 20260507075020 | 11 | 315 | 9.7 | 22.5 | 0.00 | 0.13 | 0.00 | 84 | 1006.9 |
| 20260507074020 | 11 | 315 | 8.0 | 22.5 | 0.00 | 0.13 | 0.00 | 84 | 1006.7 |
| 20260507073040 | 11 | 293 | 8.0 | 20.9 | 0.00 | 0.13 | 0.00 | 85 | 1006.4 |
| 20260507072018 | 11 | 293 | 4.8 | 17.7 | 0.00 | 0.13 | 0.00 | 86 | 1006.6 |
| 20260507071019 | 11 | 293 | 4.8 | 14.5 | 0.00 | 0.13 | 0.00 | 87 | 1006.6 |
| 20260507070021 | 11 | 293 | 6.4 | 16.1 | 0.00 | 0.13 | 0.00 | 88 | 1006.6 |
| 20260507065108 | 11 | 293 | 3.2 | 12.9 | 0.00 | 0.13 | 0.00 | 88 | 1006.6 |
| 20260507064018 | 11 | 315 | 4.8 | 14.5 | 0.00 | 0.13 | 0.00 | 88 | 1006.4 |
| 20260507063040 | 11 | 315 | 4.8 | 16.1 | 0.00 | 0.13 | 0.00 | 89 | 1006.4 |
| 20260507062042 | 11 | 315 | 4.8 | 16.1 | 0.00 | 0.13 | 0.00 | 89 | 1006.7 |
| 20260507061020 | 11 | 293 | 1.6 | 8.0 | 0.00 | 0.13 | 0.00 | 89 | 1006.6 |
| 20260507060022 | 11 | 315 | 6.4 | 14.5 | 0.00 | 0.13 | 0.00 | 90 | 1006.9 |
| 20260507055547 | 11 | 315 | 6.4 | 16.1 | 0.00 | 0.13 | 0.00 | 90 | 1007.0 |
| 20260507054521 | 11 | 315 | 6.4 | 20.9 | 0.00 | 0.13 | 0.00 | 91 | 1006.8 |
| 20260507053520 | 11 | 315 | 9.7 | 20.9 | 0.00 | 0.13 | 0.00 | 92 | 1006.5 |
| 20260507052519 | 11 | 315 | 8.0 | 22.5 | 0.00 | 0.13 | 0.00 | 92 | 1006.7 |
| 20260507051521 | 12 | 315 | 9.7 | 25.7 | 0.00 | 0.13 | 0.00 | 92 | 1006.6 |
| 20260507050521 | 14 | 293 | 1.6 | 11.3 | 0.00 | 0.13 | 0.00 | 93 | 1006.6 |
| 20260507045521 | 13 | 293 | 1.6 | 12.9 | 0.00 | 0.13 | 0.00 | 93 | 1006.3 |
| 20260507044543 | 13 | 270 | 1.6 | 4.8 | 0.00 | 0.13 | 0.00 | 93 | 1006.5 |
| 20260507043519 | 13 | 270 | 1.6 | 6.4 | 0.00 | 0.13 | 0.00 | 93 | 1006.5 |
| 20260507042519 | 13 | 270 | 3.2 | 12.9 | 0.00 | 0.13 | 0.00 | 93 | 1006.4 |
| 20260507041519 | 13 | 270 | 1.6 | 11.3 | 0.00 | 0.13 | 0.00 | 93 | 1006.7 |
| 20260507040519 | 12 | 270 | 3.2 | 11.3 | 0.00 | 0.13 | 0.00 | 93 | 1006.6 |
| 20260507040021 | 12 | 270 | 1.6 | 9.7 | 0.00 | 0.13 | 0.13 | 93 | 1006.6 |
| 20260507035020 | 12 | 270 | 6.4 | 17.7 | 0.00 | 0.13 | 0.13 | 92 | 1006.8 |
| 20260507034018 | 12 | 270 | 4.8 | 17.7 | 0.00 | 0.13 | 0.13 | 92 | 1006.6 |
| 20260507033018 | 12 | 248 | 4.8 | 16.1 | 0.00 | 0.13 | 0.13 | 92 | 1006.3 |
| 20260507032017 | 12 | 270 | 4.8 | 17.7 | 0.00 | 0.13 | 0.13 | 92 | 1006.0 |
| 20260507031018 | 12 | 270 | 4.8 | 16.1 | 0.00 | 0.13 | 0.13 | 92 | 1006.0 |
| 20260507030018 | 12 | 270 | 9.7 | 22.5 | 0.00 | 0.13 | 0.13 | 92 | 1005.9 |
| 20260507025059 | 12 | 270 | 8.0 | 24.1 | 0.00 | 0.13 | 0.13 | 92 | 1006.1 |
| 20260507024018 | 13 | 270 | 4.8 | 20.9 | 0.00 | 0.13 | 0.13 | 92 | 1006.1 |
| 20260507023020 | 13 | 248 | 3.2 | 12.9 | 0.00 | 0.13 | 0.13 | 92 | 1006.1 |
| 20260507022019 | 12 | 270 | 4.8 | 19.3 | 0.00 | 0.13 | 0.13 | 92 | 1006.3 |
| 20260507021331 | 12 | 225 | 4.8 | 17.7 | 0.00 | 0.13 | 0.13 | 92 | 1006.1 |
| 20260507020517 | 12 | 248 | 4.8 | 19.3 | 0.00 | 0.13 | 0.13 | 92 | 1006.4 |
| 20260507020008 | 12 | 248 | 4.8 | 22.5 | 0.00 | 0.13 | 0.13 | 92 | 1006.3 |
| 20260507015020 | 12 | 225 | 8.0 | 24.1 | 0.00 | 0.13 | 0.13 | 92 | 1006.5 |
| 20260507014019 | 12 | 248 | 6.4 | 19.3 | 0.00 | 0.13 | 0.13 | 92 | 1006.4 |
| 20260507013040 | 12 | 248 | 8.0 | 29.0 | 0.00 | 0.13 | 0.13 | 92 | 1006.6 |
| 20260507012019 | 12 | 248 | 6.4 | 20.9 | 0.00 | 0.13 | 0.13 | 92 | 1006.5 |
| 20260507011019 | 12 | 248 | 9.7 | 29.0 | 0.03 | 0.13 | 0.13 | 92 | 1006.7 |
| 20260507010021 | 12 | 248 | 8.0 | 22.5 | 0.03 | 0.13 | 0.13 | 92 | 1006.6 |
| 20260507005019 | 12 | 248 | 9.7 | 25.7 | 0.03 | 0.13 | 0.13 | 92 | 1006.7 |
| 20260507004026 | 12 | 248 | 8.0 | 25.7 | 0.05 | 0.13 | 0.13 | 92 | 1006.6 |
| 20260507003101 | 11 | 225 | 8.0 | 32.2 | 0.05 | 0.13 | 0.13 | 91 | 1006.6 |
| 20260507002019 | 11 | 225 | 4.8 | 19.3 | 0.05 | 0.13 | 0.13 | 91 | 1006.8 |
| 20260507001019 | 11 | 225 | 8.0 | 22.5 | 0.03 | 0.10 | 0.10 | 92 | 1006.8 |
| 20260507000019 | 11 | 248 | 8.0 | 22.5 | 0.03 | 0.10 | 0.10 | 91 | 1006.8 |
| 20260506235023 | 11 | 225 | 6.4 | 20.9 | 0.03 | 0.10 | 0.10 | 91 | 1006.7 |
| 20260506234019 | 12 | 225 | 6.4 | 25.7 | 0.00 | 0.08 | 0.08 | 91 | 1006.8 |
| 20260506233019 | 11 | 225 | 6.4 | 16.1 | 0.00 | 0.08 | 0.08 | 91 | 1006.9 |
| 20260506232021 | 11 | 225 | 6.4 | 24.1 | 0.00 | 0.08 | 0.08 | 91 | 1006.8 |
| 20260506231021 | 12 | 225 | 6.4 | 20.9 | 0.03 | 0.08 | 0.08 | 90 | 1007.0 |
| 20260506230041 | 12 | 225 | 4.8 | 19.3 | 0.03 | 0.08 | 0.08 | 91 | 1006.9 |
| 20260506225010 | 12 | 225 | 8.0 | 16.1 | 0.03 | 0.08 | 0.08 | 91 | 1007.0 |
| 20260506224603 | 12 | 225 | 6.4 | 19.3 | 0.03 | 0.08 | 0.08 | 90 | 1007.1 |
| 20260506223541 | 12 | 225 | 6.4 | 19.3 | 0.03 | 0.08 | 0.08 | 90 | 1007.3 |
| 20260506222519 | 12 | 225 | 6.4 | 14.5 | 0.03 | 0.08 | 0.08 | 90 | 1007.3 |
| 20260506221541 | 12 | 225 | 6.4 | 19.3 | 0.03 | 0.05 | 0.05 | 90 | 1007.4 |
| 20260506220524 | 12 | 248 | 8.0 | 20.9 | 0.05 | 0.05 | 0.05 | 89 | 1007.5 |
| 20260506215519 | 12 | 225 | 8.0 | 27.4 | 0.05 | 0.05 | 0.05 | 89 | 1007.5 |
| 20260506214524 | 12 | 225 | 8.0 | 20.9 | 0.05 | 0.05 | 0.05 | 89 | 1007.6 |
| 20260506213521 | 12 | 225 | 6.4 | 19.3 | 0.05 | 0.05 | 0.05 | 89 | 1007.7 |